Tracking 31080 objects as of 20-Jul-2025
HD Live streaming from Space Station
objects crossing your sky now

ION SCV-017

Track ION SCV-017 now!
10-day predictions


NORAD ID: 63230
Int'l Code: 2025-052W
Perigee: 484.0 km
Apogee: 518.7 km
Inclination: 97.4 °
Period: 94.5 minutes
Semi major axis: 6872 km
RCS: Unknown
Launch date: March 15, 2025
Source: Italy (IT)
Launch site: AIR FORCE WESTERN TEST RANGE (AFWTR)
Your satellite tracking list
Your tracking list is empty




NASA's NSSDC Master Catalog

Two Line Element Set (TLE):
1 63230U 25052W   25200.43407848  .00003038  00000-0  12794-3 0  9995
2 63230  97.4263  93.6583 0025237 140.4026 219.9060 15.23846488 19294
Source of the keplerian elements: AFSPC